Retour au catalogue

FENGYUN 1C DEB

LostSSO
NORAD 31144·DEBRIS·🇨🇳 China

Lancé May 10, 1999 depuis Taiyuan Satellite Launch Center

Loading…

Prochains Passages (prochaines 24 heures)

TLE

PériméSource: Space-Track

Époque: Oct 3, 2013, 08:06 UTC

1 31144U 99025BGW 13276.33812043 +.00000206 +00000-0 +16243-3 0  9998
2 31144 099.2351 319.5653 0098724 273.1648 086.6520 14.00794070335052

Suivez FENGYUN 1C DEB en temps réel avec AllMySat

Download on the App Store